This demonstration page uses our WeatherBlox Daily Observations layout. Learn more.

Left ArrowRight Arrow

Hourly Observations for November 11, 2015

Temp ( °F °C ) Dew Point ( °F °C ) Humidity (%) Winds ( mph kmh ) Pressure ( in mb ) Visibility ( mi km ) Precip ( " mm )
12:53 am 00:53 Clear 39 3.9 35 1.7 86 86 NNW 3 6 30.35 1028 10 16 0.00 0.00
1:53 am 01:53 Clear 37 2.8 32 0 82 82 N 3 6 30.35 1028 9 14 0.00 0.00
2:53 am 02:53 Clear 37 2.8 33 0.6 86 86 Calm 30.36 1028 10 16 0.00 0.00
3:53 am 03:53 Clear 37 2.8 32 0 82 82 Calm 30.36 1028 10 16 0.00 0.00
4:53 am 04:53 Clear 36 2.2 31 -0.6 82 82 Calm 30.37 1029 10 16 0.00 0.00
5:53 am 05:53 Clear 36 2.2 31 -0.6 82 82 Calm 30.39 1029 10 16 0.00 0.00
6:53 am 06:53 Sunny 34 1.1 29 -1.7 82 82 N 3 6 30.40 1030 10 16 0.00 0.00
7:53 am 07:53 Sunny 39 3.9 34 1.1 82 82 NNW 3 6 30.42 1030 10 16 0.00 0.00
8:53 am 08:53 Sunny 45 7.2 38 3.3 77 77 NNE 3 6 30.44 1031 10 16 0.00 0.00
9:53 am 09:53 Sunny 51 10.6 38 3.3 61 61 NE 3 6 30.43 1031 10 16 0.00 0.00
10:53 am 10:53 Sunny 54 12.2 36 2.2 51 51 Calm 30.43 1030 10 16 0.00 0.00
11:53 am 11:53 Sunny 57 13.9 36 2.2 45 45 S 5 7 30.40 1030 10 16 0.00 0.00
12:53 pm 12:53 Sunny 59 15 34 1.1 39 39 VRB 3 6 30.37 1029 10 16 0.00 0.00
1:53 pm 13:53 Sunny 61 16.1 34 1.1 36 36 Calm 30.35 1028 10 16 0.00 0.00
2:53 pm 14:53 Sunny 61 16.1 33 0.6 35 35 Calm 30.33 1027 10 16 0.00 0.00
3:53 pm 15:53 Sunny 61 16.1 33 0.6 35 35 ESE 3 6 30.31 1026 10 16 0.00 0.00
4:53 pm 16:53 Sunny 57 13.9 35 1.7 44 44 SSE 5 7 30.29 1026 10 16 0.00 0.00
5:53 pm 17:53 Clear 52 11.1 36 2.2 55 55 Calm 30.30 1026 10 16 0.00 0.00
6:53 pm 18:53 Clear 46 7.8 36 2.2 68 68 WNW 5 7 30.31 1027 10 16 0.00 0.00
7:53 pm 19:53 Clear 44 6.7 36 2.2 73 73 WNW 3 6 30.31 1027 10 16 0.00 0.00
8:53 pm 20:53 Clear 44 6.7 36 2.2 73 73 Calm 30.31 1026 10 16 0.00 0.00
9:53 pm 21:53 Clear 42 5.6 36 2.2 79 79 N 5 7 30.32 1027 10 16 0.00 0.00
10:53 pm 22:53 Clear 42 5.6 36 2.2 79 79 N 3 6 30.30 1026 10 16 0.00 0.00
11:53 pm 23:53 Clear 42 5.6 36 2.2 79 79 Calm 30.30 1026 10 16 0.00 0.00

Powered by AerisWeather